EW4077 Weather Reports


Display with metric or nautical units.
time (UTC)temp
F
wind
direction
speed
MPH
gust
MPH
rain 1hr
in
rain 24hr
in
rain mn
in
humidity
%
barometer
mb
20260510140039 61 123 3.0 5.0 0.00 0.00 0.00 85 1012.9
20260510134537 61 134 1.0 4.0 0.00 0.00 0.00 86 1012.8
20260510133134 61 94 0.0 5.0 0.00 0.00 0.00 86 1012.7
20260510131538 61 117 1.0 3.0 0.00 0.00 0.00 86 1012.6
20260510130032 61 94 1.0 2.0 0.00 0.00 0.00 87 1012.5
20260510124531 60 53 0.0 4.0 0.00 0.00 0.00 87 1012.5
20260510123034 60 86 0.0 1.0 0.00 0.00 0.00 88 1012.6
20260510121528 60 86 0.0 2.0 0.00 0.00 0.00 88 1012.6
20260510120029 60 53 0.0 1.0 0.00 0.00 0.00 89 1012.6
20260510114527 60 61 0.0 1.0 0.00 0.00 0.00 89 1012.5
20260510113026 60 12 2.0 4.0 0.00 0.00 0.00 89 1012.5
20260510111524 60 64 0.0 3.0 0.00 0.00 0.00 89 1012.5
20260510110035 60 99 1.0 3.0 0.00 0.00 0.00 90 1012.5
20260510104523 59 27 0.0 1.0 0.00 0.00 0.00 90 1012.6
20260510103022 59 26 0.0 2.0 0.00 0.00 0.00 91 1012.5
20260510101520 59 266 0.0 1.0 0.00 0.00 0.00 91 1012.6
20260510100020 59 286 0.0 2.0 0.00 0.00 0.00 91 1012.7
20260510094538 59 267 0.0 1.0 0.00 0.00 0.00 92 1012.7
20260510093017 59 267 1.0 2.0 0.00 0.00 0.00 91 1012.7
20260510091522 59 136 4.0 7.0 0.00 0.00 0.00 91 1012.8
20260510090017 59 92 0.0 2.0 0.00 0.00 0.00 91 1012.8
20260510084514 59 82 0.0 5.0 0.00 0.00 0.00 91 1012.7
20260510083013 59 107 0.0 4.0 0.00 0.00 0.00 91 1012.7
20260510081514 59 122 1.0 4.0 0.00 0.00 0.00 91 1012.9
20260510080013 59 115 2.0 7.0 0.00 0.00 0.00 91 1013.0
20260510074507 60 129 3.0 6.0 0.00 0.00 0.00 91 1013.0
20260510073007 60 173 2.0 4.0 0.00 0.00 0.00 91 1013.2
20260510071504 60 203 1.0 4.0 0.00 0.00 0.00 91 1013.2
20260510070002 60 146 3.0 5.0 0.00 0.00 0.00 90 1013.2
20260510064501 60 162 3.0 5.0 0.00 0.00 0.00 90 1013.1
20260510063001 60 159 1.0 3.0 0.00 0.00 0.00 90 1013.2
20260510061601 60 162 0.0 3.0 0.00 0.00 0.00 91 1013.1
20260510054600 60 228 1.0 4.0 0.00 0.00 0.00 91 1013.2
20260510053104 60 215 2.0 4.0 0.00 0.00 0.00 91 1013.2
20260510051559 60 259 2.0 6.0 0.00 0.00 0.00 91 1013.1
20260510050059 60 273 3.0 8.0 0.00 0.00 0.00 91 1013.2
20260510044557 60 231 2.0 8.0 0.00 0.00 0.00 91 1013.1
20260510043103 60 252 5.0 8.0 0.00 0.00 0.00 91 1012.9
20260510041656 60 223 5.0 8.0 0.00 0.00 0.00 91 1012.9
20260510040054 60 240 4.0 10.0 0.00 0.00 0.00 91 1012.7
20260510034553 60 244 7.0 12.0 0.00 0.00 0.00 90 1012.6
20260510033101 60 234 7.0 11.0 0.00 0.00 0.00 90 1012.3
20260510031552 60 263 8.0 14.0 0.00 0.00 0.00 90 1012.1
20260510030050 60 251 8.0 13.0 0.00 0.00 0.00 90 1011.9
20260510024550 61 253 6.0 13.0 0.00 0.00 0.00 89 1011.8
20260510023046 61 242 6.0 14.0 0.00 0.00 0.00 88 1011.7
20260510021549 62 240 6.0 16.0 0.00 0.00 0.00 86 1011.5
20260510020043 62 238 6.0 14.0 0.00 0.00 0.00 86 1011.4
20260510014545 63 257 9.0 15.0 0.00 0.00 0.00 85 1011.1
20260510013048 63 222 10.0 16.0 0.00 0.00 0.00 84 1011.1
20260510011544 63 251 10.0 16.0 0.00 0.00 0.00 84 1011.1
20260510010040 64 246 9.0 17.0 0.00 0.00 0.00 83 1011.0
20260510004541 64 188 11.0 15.0 0.00 0.00 0.00 82 1011.0
20260510003038 64 248 10.0 15.0 0.00 0.00 0.00 82 1011.1
20260510001542 64 230 11.0 17.0 0.00 0.00 0.00 81 1011.2
20260510000046 65 269 8.0 16.0 0.00 0.00 0.00 81 1011.1
20260509234535 65 250 8.0 17.0 0.00 0.00 0.00 81 1011.1
20260509233035 65 252 11.0 15.0 0.00 0.00 0.00 80 1011.1
20260509231539 65 221 9.0 16.0 0.00 0.00 0.00 80 1011.2
20260509230035 65 236 9.0 0.0 0.00 0.00 0.00 80 1011.1
20260509224530 65 247 9.0 19.0 0.00 0.00 0.00 80 1011.3
20260509223027 66 246 7.0 15.0 0.00 0.00 0.00 80 1011.5
20260509221524 65 252 9.0 16.0 0.00 0.00 0.00 80 1011.8
20260509220022 66 226 7.0 14.0 0.00 0.00 0.00 79 1012.0
20260509214519 66 245 7.0 12.0 0.00 0.00 0.00 79 1012.3
20260509213025 67 171 4.0 12.0 0.00 0.00 0.00 79 1012.5
20260509211512 66 204 7.0 11.0 0.00 0.00 0.00 78 1012.7
20260509210011 66 176 6.0 9.0 0.00 0.00 0.00 78 1012.8
20260509204509 66 193 5.0 8.0 0.00 0.00 0.00 79 1013.0
20260509203015 65 206 5.0 9.0 0.00 0.00 0.00 81 1013.0
20260509201507 66 200 6.0 9.0 0.00 0.00 0.00 81 1013.2
20260509200007 66 154 5.0 8.0 0.00 0.00 0.00 80 1013.3
20260509194506 66 179 4.0 8.0 0.00 0.00 0.00 80 1013.4
20260509193005 66 114 3.0 8.0 0.00 0.00 0.00 80 1013.6
20260509191503 66 162 4.0 7.0 0.00 0.00 0.00 80 1013.7
20260509190001 65 141 4.0 7.0 0.00 0.00 0.00 81 1013.8
20260509184602 65 123 4.0 8.0 0.00 0.00 0.00 82 1013.9
20260509183100 64 136 4.0 8.0 0.00 0.00 0.00 84 1014.0
20260509181557 64 130 2.0 5.0 0.00 0.00 0.00 84 1014.0
20260509180054 64 120 1.0 5.0 0.00 0.00 0.00 84 1014.1
20260509174616 64 142 2.0 3.0 0.00 0.00 0.00 84 1014.1
20260509173052 63 173 2.0 4.0 0.00 0.00 0.00 84 1014.1
20260509171548 63 173 1.0 4.0 0.00 0.00 0.00 84 1014.0
20260509170047 63 136 1.0 3.0 0.00 0.00 0.00 84 1013.8
20260509164545 63 152 0.0 2.0 0.00 0.00 0.00 85 1013.7
20260509163042 62 130 0.0 2.0 0.00 0.00 0.00 86 1013.7
20260509161541 62 160 0.0 2.0 0.00 0.00 0.00 87 1013.9
20260509160039 62 142 0.0 2.0 0.00 0.00 0.00 87 1013.8
20260509154537 61 132 1.0 3.0 0.00 0.00 0.00 87 1013.8
20260509153051 61 149 1.0 3.0 0.00 0.00 0.00 87 1013.9
20260509151535 61 156 0.0 3.0 0.00 0.00 0.00 87 1013.9
20260509150033 61 135 0.0 0.0 0.00 0.00 0.00 88 1013.9
20260509144533 61 145 0.0 0.0 0.00 0.00 0.00 89 1013.9
20260509143031 60 146 0.0 0.0 0.00 0.00 0.00 89 1013.7
20260509141531 60 171 0.0 0.0 0.00 0.00 0.00 90 1013.6